GFSNE_sfc_vis_267.txt.gz
Visibility
15.0 15.0 15.0 15.0 15.0 11.3 14.5 6.5 0.1 0.0 14.2 15.0 0.4 2.8 1.4 2.2 6.3 7.9 14.4 11.6 8.6 15.0 15.0 15.0 15.0 15.0 9.5 5.9 12.6 12.0 13.9 15.0 15.0 15.0 15.0 15.0 15.0 15.0
15.0 15.0 15.0 15.0 15.0 15.0 15.0 15.0 7.3 6.2 15.0 15.0 15.0 12.1 3.8 5.3 3.3 3.5 14.6 15.0 15.0 15.0 14.5 10.0 15.0 15.0 15.0 7.9 14.7 7.1 14.9 15.0 15.0 15.0 15.0 15.0 15.0 15.0
15.0 15.0 15.0 15.0 15.0 15.0 15.0 15.0 5.8 2.0 3.4 15.0 15.0 15.0 5.5 13.5 15.0 15.0 15.0 15.0 15.0 10.9 15.0 15.0 14.5 8.5 9.3 10.4 6.8 7.6 15.0 15.0 15.0 15.0 15.0 15.0 15.0 15.0
15.0 15.0 15.0 15.0 15.0 15.0 15.0 15.0 15.0 15.0 0.2 1.9 10.9 15.0 15.0 15.0 15.0 15.0 15.0 15.0 15.0 15.0 15.0 15.0 15.0 10.1 10.6 15.0 15.0 11.3 15.0 15.0 15.0 15.0 15.0 15.0 15.0 15.0
15.0 15.0 15.0 15.0 15.0 15.0 15.0 15.0 15.0 15.0 15.0 15.0 15.0 15.0 15.0 15.0 12.2 15.0 15.0 15.0 15.0 15.0 15.0 14.9 15.0 15.0 15.0 15.0 8.3 13.1 14.5 15.0 14.4 14.4 15.0 15.0 15.0 15.0
15.0 15.0 15.0 15.0 15.0 15.0 15.0 5.7 15.0 15.0 15.0 15.0 15.0 15.0 15.0 15.0 15.0 0.5 0.3 15.0 15.0 15.0 15.0 15.0 15.0 15.0 15.0 12.5 13.1 14.8 15.0 15.0 11.0 7.8 15.0 15.0 15.0 15.0
15.0 15.0 15.0 15.0 15.0 15.0 15.0 0.3 0.4 15.0 15.0 15.0 15.0 0.9 15.0 15.0 9.5 15.0 11.7 15.0 15.0 15.0 15.0 15.0 12.4 0.4 3.5 3.5 9.2 15.0 9.6 15.0 14.5 14.8 11.6 15.0 15.0 15.0
15.0 15.0 15.0 15.0 15.0 15.0 15.0 15.0 14.1 0.0 0.0 0.0 0.0 0.0 0.1 0.1 14.8 14.8 0.9 1.8 0.0 14.9 0.4 1.4 10.4 0.6 13.3 15.0 4.5 3.8 6.6 13.0 5.5 5.8 6.3 11.8 15.0 12.4
15.0 15.0 15.0 15.0 15.0 15.0 15.0 15.0 15.0 15.0 0.6 0.1 0.0 0.1 0.0 0.1 0.0 0.1 8.9 0.2 0.1 0.5 0.3 0.1 6.0 0.1 0.1 0.2 1.9 0.6 0.6 0.6 2.5 4.8 6.1 6.0 10.8 10.1
15.0 15.0 15.0 15.0 15.0 15.0 15.0 15.0 15.0 15.0 15.0 15.0 0.1 0.1 0.5 8.4 0.3 0.5 0.2 15.0 15.0 15.0 15.0 0.1 0.2 0.1 0.1 0.1 3.7 8.8 3.1 3.6 4.0 7.4 9.0 8.4 4.4 3.9
15.0 15.0 15.0 15.0 15.0 4.8 0.3 2.5 15.0 15.0 15.0 15.0 15.0 15.0 15.0 15.0 15.0 0.1 0.0 0.1 0.1 0.2 2.3 0.3 0.1 0.1 0.1 0.2 2.0 11.4 15.0 9.5 6.1 3.3 4.2 7.7 4.5 7.7
15.0 15.0 15.0 15.0 15.0 1.4 0.1 0.1 0.1 14.5 15.0 15.0 0.5 0.2 14.6 15.0 4.2 2.1 0.1 0.1 0.2 0.0 13.3 0.4 0.1 0.2 0.2 0.1 0.9 15.0 11.3 6.1 6.0 14.5 15.0 15.0 15.0 0.3
15.0 15.0 15.0 15.0 15.0 10.2 1.0 0.1 0.1 8.5 6.4 15.0 0.1 0.0 8.7 2.1 5.6 1.3 9.8 0.1 0.2 0.1 4.6 14.0 0.1 0.1 0.7 0.5 0.1 0.1 14.4 15.0 13.8 10.1 15.0 15.0 15.0 7.6
15.0 15.0 15.0 15.0 15.0 1.1 0.3 0.5 0.7 5.9 1.0 13.9 0.2 0.0 0.1 0.1 0.1 0.1 1.9 2.3 0.7 0.1 4.4 15.0 0.2 3.2 0.1 0.9 0.2 13.2 0.3 15.0 8.3 0.1 15.0 15.0 15.0 15.0
15.0 15.0 15.0 15.0 15.0 0.2 13.4 0.4 0.1 0.2 0.3 0.2 11.8 0.2 0.1 0.2 0.2 0.3 2.0 15.0 10.8 0.3 0.6 15.0 14.5 3.3 13.1 14.8 0.7 0.1 0.1 1.8 0.1 0.1 0.6 0.1 0.1 0.1
15.0 15.0 15.0 15.0 2.6 3.1 3.5 11.8 15.0 15.0 0.8 0.1 0.1 0.1 0.1 0.1 0.1 0.5 0.1 0.1 0.1 0.1 0.0 0.2 0.2 1.4 0.2 3.2 0.3 0.1 0.0 0.0 0.0 0.1 0.1 0.0 14.5 15.0
15.0 15.0 15.0 15.0 12.8 15.0 15.0 1.3 0.6 8.8 1.0 0.5 0.1 0.0 0.0 0.0 0.0 0.0 0.0 0.0 0.0 0.1 0.1 0.0 0.0 0.0 0.1 0.1 0.0 0.0 0.0 0.0 0.0 0.1 0.0 12.6 15.0 0.8
10.8 2.1 1.4 1.7 1.4 1.3 3.2 1.4 0.0 0.0 0.1 0.0 0.0 0.0 0.0 0.0 0.0 0.0 0.0 0.0 0.0 0.0 0.0 0.0 0.0 0.0 0.0 0.0 0.0 0.0 0.0 0.0 0.0 0.0 0.0 0.1 3.0 6.2
4.8 4.9 3.6 1.6 0.6 0.7 0.7 0.3 0.2 0.0 0.0 0.0 0.0 0.0 0.0 0.0 0.0 0.0 0.0 0.0 0.0 0.0 0.0 0.0 0.0 0.4 1.1 5.1 0.3 0.0 0.0 0.0 0.0 0.7 0.1 0.2 0.4 0.1
6.4 0.4 0.2 0.4 0.3 0.2 0.3 0.1 0.3 0.0 0.0 0.0 0.0 0.1 0.1 0.1 0.1 0.1 0.1 0.0 0.0 0.1 0.2 0.0 0.1 0.5 1.3 3.2 1.5 0.0 0.0 0.0 0.1 0.2 0.1 0.3 0.0 0.0
1.8 0.9 1.4 0.6 0.3 0.2 0.1 0.1 0.1 0.0 0.0 0.0 0.0 0.0 0.0 0.1 0.1 0.0 0.1 0.1 0.1 0.1 0.1 0.6 4.0 1.3 0.0 0.0 0.2 0.1 0.0 0.0 0.0 0.1 0.1 0.2 0.1 0.1
1.2 0.6 0.9 1.2 0.4 0.1 0.1 0.1 0.1 0.1 0.1 0.0 0.0 0.0 0.1 0.1 0.1 0.1 0.1 0.1 0.1 0.1 0.3 8.3 0.0 0.0 0.0 0.2 0.1 0.1 0.0 0.0 0.0 0.1 1.1 0.3 0.1 0.1
0.7 0.8 0.7 0.7 1.3 0.2 0.1 0.1 0.1 0.1 0.1 0.1 0.1 0.0 0.0 0.1 0.1 0.0 0.0 0.1 0.1 0.1 0.1 0.0 0.0 0.0 0.1 0.2 0.2 0.1 0.1 0.1 0.1 0.1 0.1 0.1 0.1 0.1

GFSNE_sfc_vis_270.txt.gz
Visibility
15.0 15.0 15.0 15.0 15.0 15.0 15.0 3.4 0.0 0.8 10.0 15.0 15.0 15.0 15.0 15.0 12.1 5.0 3.4 0.3 0.1 0.4 15.0 15.0 15.0 15.0 15.0 15.0 6.9 13.9 4.8 9.5 11.5 15.0 15.0 15.0 15.0 15.0
15.0 15.0 15.0 15.0 15.0 15.0 15.0 15.0 14.4 0.1 0.0 15.0 15.0 15.0 11.2 15.0 12.1 5.1 15.0 1.0 0.1 0.3 1.7 4.8 15.0 15.0 15.0 15.0 15.0 14.3 6.8 9.4 10.8 15.0 11.5 15.0 15.0 15.0
15.0 15.0 15.0 15.0 15.0 15.0 15.0 15.0 15.0 13.6 0.1 15.0 15.0 15.0 15.0 15.0 15.0 14.9 15.0 15.0 8.1 0.5 14.3 15.0 15.0 15.0 15.0 15.0 15.0 14.9 13.3 7.7 6.1 9.7 6.7 15.0 15.0 15.0
15.0 15.0 15.0 15.0 15.0 15.0 15.0 15.0 15.0 15.0 1.3 13.1 15.0 15.0 15.0 15.0 15.0 15.0 15.0 15.0 15.0 14.4 15.0 10.5 15.0 15.0 15.0 15.0 8.4 15.0 14.8 5.9 3.1 6.6 3.5 15.0 15.0 15.0
15.0 15.0 15.0 15.0 15.0 15.0 15.0 15.0 15.0 15.0 15.0 15.0 15.0 15.0 15.0 15.0 15.0 15.0 15.0 15.0 15.0 15.0 0.5 12.1 8.0 14.3 15.0 11.5 13.8 15.0 2.0 0.5 2.4 8.0 4.1 15.0 15.0 15.0
15.0 15.0 15.0 15.0 15.0 15.0 15.0 15.0 15.0 15.0 15.0 15.0 15.0 15.0 15.0 15.0 15.0 15.0 15.0 15.0 15.0 15.0 2.8 0.7 5.8 13.5 15.0 15.0 15.0 15.0 15.0 15.0 8.6 8.8 6.6 4.9 14.8 14.4
15.0 15.0 15.0 15.0 15.0 15.0 15.0 12.5 1.6 0.2 2.1 1.9 4.8 2.4 11.3 0.3 5.0 15.0 15.0 15.0 15.0 15.0 15.0 15.0 12.4 15.0 15.0 6.0 2.5 14.6 15.0 6.0 2.9 9.8 10.0 15.0 15.0 14.3
15.0 15.0 15.0 15.0 15.0 15.0 15.0 15.0 15.0 0.2 0.1 0.0 0.4 0.0 0.1 0.1 0.1 0.1 0.3 1.1 0.2 15.0 15.0 0.5 11.0 0.3 14.8 15.0 15.0 15.0 15.0 1.4 3.1 5.6 5.2 3.3 8.1 4.4
15.0 15.0 15.0 15.0 15.0 15.0 15.0 15.0 15.0 15.0 4.8 1.1 0.1 0.1 0.1 4.2 0.1 0.0 0.1 0.1 2.2 15.0 11.7 0.1 15.0 0.2 4.4 0.2 11.0 15.0 11.1 2.1 1.3 1.0 1.0 1.1 1.9 2.3
15.0 15.0 15.0 15.0 15.0 15.0 10.8 14.8 15.0 15.0 15.0 15.0 14.7 11.3 8.6 15.0 0.9 0.9 0.2 0.1 7.0 15.0 15.0 0.0 2.5 0.3 14.3 8.5 9.0 5.9 7.2 1.0 0.5 0.6 0.7 0.5 0.6 0.8
15.0 15.0 15.0 15.0 15.0 15.0 7.2 0.1 0.1 7.5 15.0 15.0 15.0 15.0 15.0 15.0 15.0 0.2 0.0 0.0 0.1 2.5 4.1 0.1 0.1 0.1 0.1 0.7 15.0 14.3 9.7 7.9 7.3 11.1 14.7 13.6 2.5 0.9
15.0 15.0 15.0 15.0 15.0 15.0 11.8 0.1 0.0 0.3 15.0 2.3 15.0 15.0 15.0 15.0 15.0 2.0 0.1 0.0 0.1 0.0 12.5 0.2 0.1 0.1 0.1 0.1 1.4 15.0 15.0 14.9 15.0 12.4 15.0 15.0 9.3 0.7
15.0 15.0 15.0 15.0 15.0 15.0 15.0 15.0 7.0 4.6 0.2 0.4 11.0 15.0 15.0 15.0 15.0 15.0 11.4 0.1 0.0 0.1 10.5 4.5 0.1 0.3 0.6 0.1 1.6 2.0 0.1 15.0 15.0 15.0 15.0 15.0 15.0 7.5
14.0 11.8 15.0 15.0 15.0 15.0 15.0 15.0 15.0 0.3 0.1 0.9 15.0 15.0 15.0 15.0 15.0 3.7 15.0 2.7 1.9 0.1 0.6 9.9 1.2 12.1 0.2 9.6 0.3 12.0 15.0 15.0 15.0 0.7 15.0 15.0 15.0 15.0
15.0 15.0 15.0 15.0 15.0 15.0 15.0 15.0 15.0 0.1 0.0 0.1 2.6 15.0 15.0 15.0 15.0 0.5 12.6 15.0 15.0 15.0 0.6 15.0 15.0 13.5 14.0 15.0 15.0 15.0 0.1 0.5 15.0 0.2 0.2 0.1 0.2 0.7
15.0 11.3 14.4 15.0 15.0 15.0 15.0 15.0 14.8 6.8 0.2 0.0 0.1 6.1 6.8 0.1 0.0 0.1 0.0 0.1 0.0 0.1 0.1 12.6 0.2 8.2 0.2 0.5 0.5 0.2 0.5 0.1 0.0 0.1 0.1 0.0 0.1 15.0
15.0 15.0 15.0 11.7 7.8 15.0 15.0 15.0 15.0 15.0 7.3 0.0 0.0 0.0 0.0 0.0 0.0 0.0 0.0 0.0 0.0 0.0 0.1 0.0 0.0 0.1 0.1 0.0 0.0 0.1 0.0 0.0 0.0 0.0 0.1 0.1 15.0 15.0
15.0 8.3 3.3 2.2 3.1 1.3 1.7 4.9 15.0 15.0 2.1 0.1 0.0 0.0 0.0 0.0 0.0 0.0 0.0 0.0 0.0 0.0 0.0 0.1 0.0 0.0 0.0 0.0 0.0 0.0 0.0 0.0 0.0 0.0 0.0 0.0 14.8 15.0
2.9 3.7 1.1 1.5 0.9 1.1 1.0 1.5 0.2 1.3 0.3 0.2 0.0 0.0 0.0 0.1 0.1 0.2 0.1 0.0 0.0 0.0 0.0 0.0 0.0 0.0 0.1 0.6 2.4 0.0 0.0 0.0 0.0 5.4 2.6 13.6 6.5 10.4
8.4 1.0 0.6 0.7 0.6 0.6 0.8 0.4 0.8 0.2 0.1 0.1 0.0 0.0 0.1 0.1 0.1 0.1 0.1 0.0 0.0 0.0 0.1 0.0 0.1 0.1 0.5 0.8 0.7 1.2 0.0 0.0 2.9 5.6 6.1 1.2 0.0 0.0
1.9 1.9 1.5 0.8 0.7 0.7 0.8 0.5 0.1 0.1 0.1 0.1 0.1 0.1 0.0 0.0 0.3 0.2 0.1 0.1 0.1 0.1 0.2 0.4 1.0 1.1 0.0 0.1 0.4 0.8 0.0 0.0 0.0 0.0 0.1 0.2 0.1 0.1
2.0 1.6 2.6 1.2 0.6 0.4 0.3 0.2 0.1 0.1 0.1 0.1 0.1 0.1 0.1 0.1 0.1 0.1 0.1 0.1 0.1 0.1 0.2 0.2 0.0 0.0 0.0 0.4 0.5 0.2 0.1 0.1 0.6 0.1 0.1 0.1 0.1 0.2
0.8 1.3 0.5 0.9 1.1 0.5 0.2 0.1 0.1 0.1 0.1 0.1 0.1 0.1 0.1 0.1 0.1 0.1 0.0 0.0 0.1 0.1 0.1 0.0 0.0 0.0 0.2 0.3 0.3 0.1 0.1 0.1 0.1 1.7 0.1 0.1 0.3 0.1

GFSNE_sfc_vis_276.txt.gz
Visibility
15.0 15.0 15.0 15.0 15.0 15.0 15.0 15.0 2.4 13.6 15.0 15.0 15.0 15.0 15.0 15.0 15.0 15.0 15.0 15.0 1.3 0.0 0.0 0.1 0.1 0.1 0.2 2.1 15.0 14.9 15.0 4.8 10.0 12.2 12.1 6.2 11.6 14.9
15.0 15.0 15.0 15.0 15.0 15.0 15.0 15.0 15.0 15.0 15.0 15.0 15.0 15.0 15.0 15.0 15.0 15.0 15.0 15.0 14.8 10.9 6.5 0.1 0.1 0.1 0.1 0.4 13.2 15.0 15.0 14.1 6.3 3.4 7.4 11.1 4.9 6.3
15.0 15.0 15.0 15.0 15.0 15.0 15.0 15.0 15.0 15.0 15.0 15.0 15.0 15.0 15.0 15.0 15.0 15.0 15.0 15.0 15.0 15.0 15.0 14.7 0.1 0.1 0.1 0.1 0.3 1.0 5.9 15.0 3.4 3.1 9.2 11.9 9.3 11.2
15.0 15.0 15.0 15.0 15.0 15.0 15.0 15.0 15.0 15.0 15.0 15.0 15.0 15.0 15.0 15.0 15.0 15.0 15.0 15.0 15.0 15.0 15.0 15.0 14.8 0.4 0.1 0.2 0.2 0.1 0.1 0.2 0.2 0.2 0.2 2.8 7.0 5.6
15.0 15.0 15.0 15.0 15.0 15.0 15.0 15.0 15.0 15.0 15.0 15.0 15.0 15.0 15.0 15.0 15.0 15.0 15.0 15.0 15.0 15.0 15.0 15.0 15.0 15.0 15.0 1.0 0.2 0.2 0.3 0.2 0.1 0.1 0.1 0.1 0.1 4.9
15.0 15.0 15.0 15.0 15.0 15.0 15.0 15.0 15.0 15.0 15.0 15.0 15.0 15.0 15.0 15.0 15.0 15.0 15.0 15.0 15.0 15.0 15.0 15.0 15.0 15.0 15.0 15.0 13.7 1.9 0.2 0.2 0.2 0.1 0.1 0.0 0.0 0.1
15.0 15.0 15.0 15.0 15.0 15.0 15.0 15.0 15.0 15.0 15.0 15.0 15.0 15.0 15.0 15.0 15.0 15.0 15.0 15.0 15.0 15.0 15.0 15.0 15.0 15.0 15.0 15.0 15.0 15.0 1.0 0.7 0.3 0.1 0.1 0.0 0.0 0.0
15.0 15.0 15.0 15.0 15.0 15.0 15.0 15.0 15.0 15.0 15.0 15.0 15.0 15.0 15.0 15.0 15.0 15.0 15.0 15.0 15.0 15.0 15.0 15.0 15.0 15.0 15.0 15.0 0.4 15.0 15.0 15.0 1.4 1.3 0.3 0.1 0.1 0.0
15.0 15.0 15.0 15.0 15.0 15.0 15.0 15.0 15.0 15.0 15.0 15.0 15.0 15.0 15.0 15.0 15.0 15.0 15.0 15.0 15.0 15.0 14.9 15.0 15.0 15.0 15.0 15.0 15.0 15.0 15.0 15.0 15.0 15.0 15.0 0.1 0.1 0.1
15.0 15.0 15.0 15.0 15.0 15.0 15.0 15.0 15.0 15.0 15.0 15.0 15.0 15.0 15.0 15.0 15.0 15.0 15.0 15.0 15.0 15.0 15.0 15.0 15.0 15.0 15.0 15.0 15.0 15.0 15.0 15.0 15.0 15.0 0.8 0.3 0.1 0.1
15.0 15.0 15.0 15.0 15.0 15.0 15.0 15.0 15.0 15.0 15.0 15.0 15.0 15.0 15.0 15.0 15.0 15.0 6.6 5.6 5.8 15.0 15.0 15.0 15.0 15.0 15.0 15.0 15.0 15.0 15.0 15.0 15.0 15.0 15.0 0.3 0.2 0.2
15.0 15.0 15.0 15.0 15.0 15.0 15.0 15.0 15.0 15.0 15.0 15.0 15.0 15.0 15.0 15.0 15.0 8.1 15.0 2.8 3.1 5.8 14.7 13.5 15.0 14.0 0.1 0.0 15.0 15.0 15.0 15.0 15.0 15.0 15.0 15.0 15.0 15.0
15.0 15.0 15.0 15.0 15.0 15.0 15.0 15.0 15.0 15.0 15.0 15.0 15.0 15.0 15.0 15.0 15.0 11.7 10.4 4.8 3.6 4.7 15.0 15.0 9.7 0.3 0.2 0.0 0.1 15.0 15.0 15.0 15.0 15.0 15.0 15.0 15.0 15.0
15.0 15.0 15.0 15.0 15.0 15.0 15.0 15.0 15.0 15.0 9.6 8.4 12.4 15.0 15.0 15.0 14.4 13.7 2.0 15.0 15.0 7.5 15.0 14.2 0.0 0.0 0.1 0.0 0.1 7.0 14.4 15.0 15.0 15.0 15.0 15.0 15.0 15.0
15.0 15.0 15.0 15.0 15.0 15.0 15.0 15.0 15.0 9.7 10.8 8.1 6.9 6.1 5.0 15.0 14.9 15.0 14.3 10.5 15.0 15.0 15.0 15.0 0.1 0.0 0.0 0.0 0.0 15.0 1.9 0.4 15.0 15.0 15.0 15.0 15.0 15.0
14.8 12.2 15.0 15.0 15.0 15.0 14.6 14.3 15.0 11.5 11.5 6.5 6.4 7.7 13.6 10.1 14.0 3.4 11.5 2.2 0.1 0.0 0.1 15.0 0.2 0.0 0.0 0.0 0.0 0.0 14.8 1.1 12.8 15.0 15.0 11.7 15.0 15.0
15.0 8.3 7.7 9.1 9.3 12.5 12.7 14.3 12.1 14.8 12.8 10.5 8.6 4.1 7.4 10.3 10.3 10.4 1.8 0.0 0.0 0.0 0.0 0.0 0.1 0.0 0.0 0.0 0.0 0.0 6.1 15.0 15.0 15.0 10.9 13.1 12.3 14.3
10.6 9.2 9.7 10.3 10.6 13.5 12.9 14.0 13.9 13.6 11.4 8.8 10.4 7.5 1.8 1.4 0.7 5.4 0.9 0.1 0.0 0.0 1.9 0.0 0.0 0.0 0.0 0.0 0.3 0.1 15.0 15.0 15.0 15.0 15.0 0.0 0.0 0.1
15.0 12.8 8.2 4.8 6.1 11.5 11.4 9.2 5.5 12.0 11.6 9.6 5.6 1.9 0.5 1.6 0.6 0.3 0.1 0.0 0.0 0.1 1.8 5.7 0.0 0.0 0.0 1.1 0.0 0.3 7.8 15.0 14.8 0.1 0.0 0.0 7.8 15.0
15.0 12.5 4.0 3.1 3.1 2.1 5.1 3.5 6.8 8.5 4.6 3.2 0.9 1.0 0.3 0.4 0.3 0.9 0.5 0.1 0.0 0.6 0.1 0.0 0.0 0.0 0.0 0.1 0.0 0.0 2.8 15.0 5.3 11.5 0.0 0.7 15.0 15.0
15.0 13.2 9.2 9.1 4.6 4.7 3.1 2.4 1.7 0.8 0.5 0.3 0.6 0.5 0.3 0.2 1.1 1.1 0.3 0.5 0.2 2.2 2.6 0.1 0.0 0.2 0.0 0.0 0.0 0.0 0.0 15.0 15.0 0.3 0.1 8.3 13.8 15.0
15.0 11.6 11.1 10.8 4.2 3.3 2.0 1.3 1.2 1.3 0.6 0.5 0.3 0.2 0.3 0.2 0.2 0.3 0.3 0.2 0.8 0.0 0.0 0.0 0.0 0.0 0.0 0.0 0.7 0.0 8.7 0.1 3.7 15.0 2.9 0.2 0.0 0.5
15.0 11.2 4.0 3.1 3.5 4.0 4.5 1.6 1.5 0.5 0.3 0.2 0.2 0.2 0.2 0.2 0.3 0.1 0.1 0.1 0.1 0.0 0.0 0.0 0.0 0.0 0.0 0.3 0.0 0.1 0.3 1.4 3.3 1.2 1.0 0.8 0.2 0.3

GFSNE_sfc_vis_279.txt.gz
Visibility
0.9 1.1 0.9 1.9 6.6 4.8 11.1 15.0 15.0 15.0 15.0 15.0 15.0 15.0 15.0 15.0 15.0 15.0 15.0 15.0 15.0 15.0 15.0 15.0 2.2 0.1 0.2 0.6 7.7 15.0 15.0 13.3 15.0 15.0 15.0 15.0 15.0 10.7
2.3 5.0 7.3 15.0 15.0 15.0 15.0 15.0 15.0 15.0 15.0 15.0 15.0 15.0 15.0 15.0 15.0 15.0 15.0 15.0 15.0 15.0 15.0 15.0 1.3 0.1 0.3 0.2 0.2 0.7 11.2 15.0 15.0 3.1 8.1 4.5 11.4 12.2
15.0 13.7 15.0 15.0 15.0 15.0 15.0 15.0 15.0 15.0 15.0 15.0 15.0 15.0 15.0 15.0 15.0 15.0 15.0 15.0 15.0 15.0 15.0 15.0 15.0 0.2 0.6 0.1 0.1 0.1 0.1 0.1 0.6 12.6 15.0 5.9 4.2 1.9
15.0 15.0 15.0 15.0 15.0 15.0 15.0 15.0 15.0 15.0 15.0 15.0 15.0 15.0 15.0 15.0 15.0 15.0 15.0 15.0 15.0 15.0 15.0 15.0 15.0 15.0 15.0 0.6 0.2 0.2 0.2 0.1 0.1 0.1 0.1 0.1 15.0 13.0
15.0 15.0 15.0 15.0 15.0 15.0 15.0 15.0 15.0 15.0 15.0 15.0 15.0 15.0 15.0 15.0 15.0 15.0 15.0 15.0 15.0 15.0 15.0 15.0 15.0 15.0 15.0 15.0 15.0 2.1 0.2 0.1 0.1 0.1 0.0 0.0 0.0 0.2
15.0 15.0 15.0 15.0 15.0 15.0 15.0 15.0 15.0 15.0 15.0 15.0 15.0 15.0 15.0 15.0 15.0 15.0 15.0 15.0 15.0 15.0 15.0 15.0 15.0 15.0 15.0 14.2 15.0 15.0 15.0 0.2 8.5 0.2 0.1 0.0 0.0 0.0
15.0 15.0 15.0 15.0 15.0 15.0 15.0 15.0 15.0 15.0 15.0 15.0 15.0 15.0 15.0 15.0 15.0 15.0 15.0 15.0 15.0 15.0 15.0 15.0 15.0 15.0 13.0 15.0 15.0 15.0 15.0 15.0 11.5 0.4 0.2 0.1 0.1 0.0
15.0 15.0 15.0 15.0 15.0 15.0 15.0 15.0 15.0 15.0 15.0 15.0 14.9 15.0 15.0 15.0 15.0 15.0 15.0 15.0 15.0 15.0 15.0 15.0 15.0 15.0 15.0 15.0 6.1 15.0 15.0 15.0 15.0 15.0 15.0 11.0 0.1 0.1
15.0 15.0 15.0 15.0 15.0 15.0 15.0 15.0 15.0 15.0 15.0 15.0 15.0 15.0 15.0 15.0 15.0 15.0 15.0 15.0 15.0 15.0 15.0 15.0 15.0 15.0 15.0 13.7 15.0 15.0 15.0 15.0 15.0 15.0 15.0 15.0 5.1 0.1
15.0 15.0 15.0 15.0 15.0 15.0 15.0 15.0 15.0 15.0 15.0 15.0 15.0 15.0 15.0 15.0 15.0 15.0 15.0 15.0 11.1 15.0 15.0 15.0 15.0 15.0 15.0 15.0 15.0 15.0 15.0 15.0 15.0 15.0 15.0 15.0 5.8 0.3
15.0 15.0 15.0 15.0 15.0 15.0 15.0 15.0 15.0 15.0 15.0 15.0 15.0 15.0 15.0 15.0 15.0 15.0 15.0 10.5 5.8 15.0 15.0 15.0 15.0 15.0 15.0 15.0 15.0 15.0 15.0 15.0 15.0 15.0 15.0 15.0 15.0 0.9
15.0 15.0 15.0 15.0 15.0 15.0 15.0 15.0 15.0 15.0 15.0 15.0 15.0 15.0 15.0 15.0 15.0 15.0 15.0 2.2 3.1 10.3 15.0 14.4 9.8 5.9 0.1 0.1 15.0 15.0 15.0 15.0 15.0 15.0 15.0 15.0 15.0 15.0
15.0 15.0 15.0 15.0 15.0 15.0 15.0 15.0 15.0 15.0 14.1 15.0 15.0 15.0 15.0 15.0 15.0 15.0 15.0 2.3 9.3 8.3 15.0 15.0 15.0 15.0 15.0 14.7 0.3 15.0 15.0 15.0 15.0 15.0 15.0 15.0 15.0 15.0
15.0 15.0 15.0 15.0 15.0 15.0 15.0 15.0 15.0 13.4 9.1 5.3 7.9 8.5 8.7 14.8 15.0 15.0 15.0 15.0 15.0 8.6 10.7 13.7 0.1 0.0 0.0 0.0 0.0 6.1 13.8 11.7 14.9 15.0 15.0 15.0 15.0 15.0
15.0 12.4 15.0 15.0 15.0 15.0 15.0 15.0 15.0 11.4 6.8 5.4 6.0 4.6 10.7 13.9 15.0 15.0 15.0 14.7 15.0 15.0 14.1 14.0 13.7 0.1 0.0 0.0 0.0 9.6 2.7 4.3 15.0 15.0 15.0 15.0 15.0 15.0
15.0 8.9 15.0 15.0 15.0 15.0 14.5 14.8 14.3 7.7 5.5 4.8 4.4 11.6 14.4 14.8 15.0 15.0 2.9 15.0 13.9 15.0 15.0 15.0 15.0 0.1 0.0 0.0 0.0 0.0 0.0 0.1 13.0 15.0 15.0 15.0 15.0 15.0
11.6 8.2 8.9 11.4 8.8 13.4 14.5 11.4 15.0 12.3 6.2 5.6 5.9 4.4 7.9 12.6 12.2 15.0 14.2 5.7 1.5 7.3 15.0 15.0 15.0 0.1 0.0 0.0 0.0 0.0 0.0 10.7 15.0 15.0 15.0 15.0 15.0 15.0
15.0 12.4 5.2 5.5 7.2 6.7 6.2 6.8 11.7 7.9 5.6 5.6 2.4 4.6 2.5 3.6 5.2 6.8 13.4 5.6 0.4 0.2 0.0 3.7 2.9 0.0 0.0 0.0 0.0 0.0 4.7 14.3 4.9 15.0 15.0 15.0 15.0 15.0
14.9 11.4 4.4 3.7 4.9 5.4 4.4 4.4 3.6 6.3 6.2 4.2 4.6 3.0 2.3 3.0 3.8 5.5 5.8 5.0 3.0 4.4 13.7 2.4 0.0 0.0 0.0 0.1 0.5 1.8 0.8 15.0 0.1 0.0 15.0 15.0 15.0 15.0
15.0 7.8 2.7 1.6 2.8 2.5 3.3 3.0 4.2 5.3 3.4 3.2 1.3 1.7 1.3 0.9 1.2 2.2 4.3 2.1 1.7 6.3 11.8 14.4 0.0 0.0 0.0 0.2 0.0 0.0 0.1 0.0 0.0 3.9 15.0 14.7 13.6 14.4
15.0 9.9 6.3 3.4 2.7 2.5 2.8 2.8 1.6 1.2 0.9 0.5 0.7 0.8 0.8 0.6 1.4 8.3 2.1 2.7 0.3 1.1 0.5 10.8 0.0 0.1 0.0 0.0 0.0 0.0 0.1 0.2 15.0 15.0 15.0 4.2 8.4 15.0
8.7 3.9 3.7 3.3 1.3 0.9 1.1 1.3 1.4 1.8 1.7 0.9 0.6 1.0 0.7 0.6 0.2 0.5 0.7 0.1 0.5 0.2 0.2 0.2 0.0 0.0 0.0 0.0 0.1 0.0 0.0 0.0 2.7 15.0 12.0 0.7 0.5 1.9
3.0 1.3 1.3 1.5 2.0 1.4 1.6 1.4 1.5 1.2 0.8 0.2 0.4 0.3 0.3 0.2 0.3 0.2 0.1 0.1 0.1 0.1 0.1 0.0 0.0 0.0 0.0 0.0 0.0 0.0 0.1 0.4 0.1 0.1 0.3 14.7 15.0 15.0